map of SHJ home
Great Circle Mapper logo
SHJ - Airport
Location
City:  Sharjah, United Arab Emirates
Name:Sharjah International Airport
ICAO / IATA:OMSJ / SHJ

Details
Type:Airport (Aerodrome, Airfield)
Use:Public/Civil, Military, International (customs port of entry)
Latitude:2519'43"N (25.328575)
Longitude:5531'02"E (55.517150)
Datum:WGS 1984
Elevation:111 ft (34 m)
Variation:1.9E (WMM2010 magnetic declination)
Runways:1
Longest:13320 × 148 ft (4060 × 45 m), paved

Time
Time Zone:UTC+4
Local Time:

Weather
METAR:OMSJ 252100Z 09003KT CAVOK 23/18 Q1013
TAF:OMSJ 250459Z 2506/2612 20010KT CAVOK
BECMG 2509/2511 34010KT
BECMG 2514/2516 09005KT
BECMG 2603/2605 18010KT
BECMG 2609/2611 29012KT

Related Locations
Nearby:
Farthest:GMR: 11772 mi / 18945 km
Mangareva [Totegegie], Gambier Islands, PF

Find:

   beyond  
but within

Other Information
Maps:
NOTAMs:
Links:
Sources:

  
flag of United Arab Emirates   

Sectional Chart

Flight Planning
at skyvector.com

Satellite Image

Google Maps Satellite View

 

Copyright © 2004-2014 Karl L. Swartz. All rights reserved.
The Great Circle Mapper name and logo are trademarks of the Great Circle Mapper.
All other trademarks mentioned herein belong to their respective owners.
Please see credits for attibutions and further copyright information.

  Follow gcmap on Facebook Follow gcmap on Twitter

hCard Microformat

Geo Microformat